Miscellaneous Local Product
Issued by NWS North Platte, NE

Home | Current Version | Previous Version | Text Only | Print | Product List | Glossary On
Versions: 1 2 3 4 5 6 7 8 9 10 11 12 13 14 15 16 17 18 19 20 21 22 23 24 25 26 27 28 29 30 31 32 33 34 35 36 37 38 39 40 41 42 43 44 45 46 47 48 49 50
056
AXUS43 KLBF 230210
MISLBF


WESTERN AND NORTH CENTRAL NEBRASKA HOURLY WEATHER ROUNDUP
NATIONAL WEATHER SERVICE NORTH PLATTE NE
800 PM CST WED FEB 22 2017

NOTE: "FAIR" INDICATES FEW OR NO CLOUDS BELOW 12,000 FEET WITH NO
SIGNIFICANT WEATHER AND/OR OBSTRUCTIONS TO VISIBILITY.

NOTE: STATIONS NOT REPORTING VARIABLES SUCH AS SKY/WEATHER OR
PRESSURE ARE PROVIDED BY RAWS AND APRS NETWORKS AND ARE NOT UNDER
NATIONAL WEATHER SERVICE QUALITY CONTROL.

...OBSERVATIONS IN AND NEAR THE EASTERN PANHANDLE OF NEBRASKA...

CITY           SKY/WX    TMP DP  RH WIND       PRES   REMARKS
PINE RIDGE     PTCLDY    40  32  73 NE10      29.86R WCI  33
CHADRON        PTCLDY    40  30  67 NE20G26   29.85R WCI  30
ALLIANCE       CLOUDY    45  21  38 N10       29.80R
SIDNEY         MOCLDY    41  16  36 N10       29.79S
CRESCENT LAKE    N/A     46  19  33 N6          N/A
$$

...OBSERVATIONS IN NORTHERN NEBRASKA AND FAR SOUTHERN SOUTH DAKOTA...

CITY           SKY/WX    TMP DP  RH WIND       PRES   REMARKS
WINNER         FAIR      39  33  79 N14       29.87R WCI  31
VALENTINE      CLEAR     41  34  76 N12       29.85R
THEDFORD       CLOUDY    47  28  48 CALM      29.81R
AINSWORTH      CLEAR     43  36  77 N10G21    29.83R
O`NEILL        CLEAR     47  36  63 N9        29.81R
ORD            CLEAR     45  29  53 NW6       29.77R
BROKEN BOW     PTCLDY    42  30  62 N9        29.78R
VALENTINE NWR    N/A     46  28  49 N9          N/A
BUTTE            N/A     43  36  75 NW10        N/A
HALSEY           N/A     48  26  41 CALM        N/A
CHAMBERS         N/A     45  27  49 N3          N/A
EWING            N/A     45  35  68 NE3         N/A
$$

...OBSERVATIONS IN SOUTHWEST NEBRASKA AND FAR NORTHEAST COLORADO...

CITY           SKY/WX    TMP DP  RH WIND       PRES   REMARKS
HOLYOKE        FAIR      43  19  39 N8        29.78R
IMPERIAL       CLEAR     43  21  41 NE10      29.76R
OGALLALA       CLEAR     43  22  43 N8        29.78S
NORTH PLATTE   CLEAR     46  22  38 NE9       29.77S
MCCOOK         CLEAR     47  24  40 N8        29.74S
LEXINGTON      CLEAR     42  23  47 NE8       29.77R
STAPLETON        N/A     47  24  40 CALM        N/A
GOTHENBURG       N/A     47  20  34 N5          N/A
CALLAWAY         N/A     47  24  40 NE8         N/A
$$

...OBSERVATIONS IN CENTRAL LINCOLN COUNTY AREA...

CITY           SKY/WX    TMP DP  RH WIND       PRES   REMARKS
N.P. AIRPORT   CLEAR     46  22  38 NE9       29.77S
N.P. DOWNTOWN    N/A     49  25  39 CALM        N/A
N.P. SOUTHEAST   N/A     48  23  37 CALM        N/A
N.P. HILLCREST   N/A     49  24  37 NE12        N/A
$$

...SOME OBSERVATIONS FROM AROUND THE REGION...

CITY           SKY/WX    TMP DP  RH WIND       PRES   REMARKS
LARAMIE        LGT SNOW  27  24  89 N9        29.78S FOG     WCI  18
CHEYENNE       FLURRIES  32  27  81 NE9       29.81S WCI  24
DENVER         MOCLDY    44  18  35 N14       29.76R
AKRON          CLEAR     41  16  36 NE13      29.76R
SCOTTSBLUFF    CLOUDY    46  22  38 NE12      29.82R
RAPID CITY     CLOUDY    35  27  72 N20G29    29.88R WCI  24
BISMARCK       CLOUDY    34  27  75 N9        29.97R WCI  27
PIERRE         CLOUDY    36  31  82 N15       29.88R WCI  27
SIOUX FALLS    PTCLDY    41  37  86 N13       29.79R
OMAHA          CLEAR     55  35  47 N13       29.74R
GRAND ISLAND   CLEAR     44  32  62 NE8       29.77R
KANSAS CITY    MOCLDY    64  35  34 NW8       29.66S
WICHITA        PTCLDY    58  47  66 S3        29.69S
OKLAHOMA CITY  MOCLDY    63  40  42 SW5       29.72R
DALLAS         PTCLDY    69  48  47 SE8       29.72S
AMARILLO       MOCLDY    66  30  26 W12       29.78S
DODGE CITY     PTCLDY    54  26  34 E8        29.69F
HAYS             N/A     53  30  41 CALM      29.71R
GOODLAND       CLEAR     43  21  41 E7        29.72F
$$




USA.gov is the U.S. government's official web portal to all federal, state and local government web resources and services.